Theta_e
306 307 307 308 306 300 298 297 297 296 297 297 299 304 309 311 312 313 312 311 306 301 302 300 300 300 301 298 298 300 304 309 313 314 316 315 315 315 317 311 310 307 306 304 302 300 298
304 307 307 303 299 298 297 297 297 296 296 296 297 301 307 310 310 310 308 305 303 298 298 298 299 300 301 298 299 301 305 308 311 314 312 313 313 314 313 312 310 307 305 304 304 302 298
303 304 306 305 301 298 297 297 296 295 295 295 296 298 305 307 308 306 304 303 305 305 301 299 299 299 296 297 299 302 304 305 306 310 306 308 311 313 310 308 307 305 304 304 304 302 301
303 302 303 303 301 298 297 297 296 295 295 295 296 296 300 304 306 304 304 302 305 300 297 299 300 299 296 298 298 302 304 305 305 308 306 308 311 309 309 307 307 306 305 305 302 300 301
303 302 301 302 301 299 297 296 296 295 294 295 295 296 298 305 302 302 305 302 301 300 299 298 299 300 296 297 298 299 300 300 304 304 304 306 309 309 309 309 310 309 310 306 301 299 298
301 302 301 300 300 299 298 297 296 295 294 294 294 295 296 302 307 306 299 299 299 299 299 299 299 298 296 296 297 298 300 301 302 307 304 302 303 306 308 306 308 310 311 304 302 297 297
303 301 301 300 300 298 298 297 296 295 294 294 294 296 296 301 304 301 300 302 302 299 297 296 295 296 297 296 298 297 297 299 303 299 301 300 298 304 300 299 298 300 300 298 297 296 295
310 303 301 300 300 299 298 297 296 295 294 294 294 296 295 298 302 300 301 301 299 299 296 297 296 296 296 296 298 297 297 301 303 300 299 296 296 295 295 296 297 299 298 296 294 295 293
315 310 304 301 299 299 298 297 296 295 294 294 294 296 296 296 298 300 302 300 298 300 299 297 296 296 296 296 295 295 295 296 297 298 294 295 294 294 294 294 295 295 296 294 294 293 293
316 314 310 304 301 299 298 297 296 295 294 294 294 295 295 296 300 299 301 300 298 300 299 298 297 296 297 296 295 294 294 295 297 296 295 294 294 293 293 293 293 293 293 293 293 291 294
317 316 315 311 304 300 298 297 296 295 294 294 294 294 295 296 297 300 300 299 300 304 311 299 296 295 296 296 295 295 294 295 296 295 294 295 293 292 293 293 293 292 292 292 293 292 291
320 317 316 315 310 303 299 298 297 296 294 294 294 294 296 298 302 298 299 300 305 306 309 298 296 296 296 296 295 295 294 293 293 294 292 292 292 292 292 291 293 293 292 292 292 291 290
321 320 317 316 315 309 303 299 297 296 294 294 294 295 296 297 301 299 301 305 305 308 301 299 297 296 296 295 295 295 294 292 292 293 292 292 291 291 292 291 291 292 292 296 296 294 295
321 321 320 319 318 315 309 301 297 296 294 294 294 295 297 298 299 299 304 302 311 307 299 296 297 296 296 295 295 295 294 293 292 295 293 294 296 291 291 291 292 291 293 299 298 299 297
321 321 321 320 319 317 313 305 299 296 294 294 294 294 295 299 299 301 301 305 308 300 298 296 296 296 295 294 294 295 293 293 293 295 300 294 295 290 290 291 292 292 293 294 294 292 290
321 322 322 321 320 318 315 308 300 296 294 294 295 296 294 297 299 301 302 307 300 297 297 297 298 297 297 294 292 294 294 294 293 293 295 296 293 290 289 291 290 293 292 293 294 295 293
318 319 320 321 320 319 316 311 303 296 294 295 295 298 294 299 299 299 301 302 298 296 296 297 297 297 296 295 292 293 295 294 292 291 290 292 294 290 289 290 291 290 294 293 294 296 297
311 313 316 318 319 319 316 310 303 297 295 295 296 307 295 296 300 300 300 299 297 296 295 295 294 295 296 294 295 293 293 293 291 290 291 291 292 289 289 286 286 288 292 293 295 295 293
307 309 312 314 317 317 317 312 304 297 295 300 298 296 295 294 303 296 296 297 296 296 295 294 295 294 293 295 302 295 293 289 290 290 290 291 290 289 290 286 286 287 288 291 289 289 290
304 305 309 311 313 316 316 311 304 298 296 302 297 302 295 294 293 298 299 299 298 295 296 295 293 292 292 292 294 296 291 289 289 290 293 290 284 290 298 293 286 285 288 289 291 291 290
302 305 308 309 309 312 314 309 303 299 298 302 300 304 297 300 295 295 301 303 299 297 294 294 294 293 293 292 292 290 290 287 287 290 288 289 285 286 286 288 289 287 288 289 290 292 292
301 305 307 308 310 311 311 308 303 300 298 300 300 301 295 298 295 296 300 299 301 299 295 294 293 294 293 294 293 289 286 285 287 286 286 284 290 284 284 288 288 288 286 289 289 290 292
295 301 305 312 313 311 310 309 303 300 298 297 296 296 300 300 297 299 299 300 300 298 297 294 291 292 290 292 286 284 283 282 285 286 286 285 287 286 289 282 282 286 285 285 287 288 289
295 301 305 311 313 313 311 309 303 301 301 300 297 297 301 304 299 300 300 298 299 299 300 291 291 293 286 282 283 283 281 282 283 281 283 284 285 288 287 286 290 287 276 281 285 285 282
294 296 304 307 310 312 310 307 302 301 301 300 298 298 299 304 299 299 299 300 295 292 293 291 285 283 283 288 290 288 283 281 277 277 280 281 287 288 289 287 286 286 279 279 282 281 270
295 294 301 304 306 307 307 308 306 304 301 299 299 299 298 301 300 298 299 295 295 287 288 284 282 282 285 290 291 291 292 288 284 278 278 280 281 288 285 287 287 282 277 273 274 280 272
297 295 295 300 304 305 306 307 307 305 301 299 297 298 298 299 291 291 296 296 294 291 286 280 281 282 282 286 290 291 289 286 286 280 278 280 282 285 287 288 285 278 274 272 282 281 270
297 296 296 295 297 304 305 306 305 304 300 298 296 296 297 294 285 283 284 291 290 289 287 281 284 281 282 287 289 287 288 285 284 279 278 281 283 282 285 285 285 273 273 279 271 268 268
298 297 296 296 297 299 304 305 306 304 301 297 294 294 295 287 281 279 278 279 280 282 285 283 286 282 285 285 287 290 290 282 281 285 279 284 285 284 284 284 273 272 271 269 268 268 268
Wind_Speed
3 3 3 3 5 6 7 8 10 12 12 12 11 10 10 11 13 13 12 11 10 7 2 8 6 5 3 6 2 14 14 8 5 7 2 2 1 1 5 5 5 7 4 7 9 14 11
3 2 2 2 3 4 6 7 9 10 11 11 10 9 8 8 8 10 12 11 7 7 5 8 8 5 3 5 9 11 10 10 11 4 10 9 3 3 6 6 6 6 11 9 5 6 6
1 1 1 1 2 3 4 6 7 9 9 10 9 7 6 6 7 9 12 7 5 4 7 5 2 6 8 2 8 9 9 10 11 8 4 11 8 7 5 10 6 11 8 6 4 3 3
1 0 1 1 0 2 3 5 6 8 8 8 8 6 5 5 6 8 6 2 5 4 8 4 4 6 3 3 6 8 8 9 10 6 6 10 10 6 6 9 4 5 4 4 5 6 6
3 2 1 2 1 0 2 4 5 7 8 8 8 6 4 3 6 3 2 2 4 5 5 5 4 3 2 2 4 9 8 7 7 6 6 7 7 4 4 6 3 4 3 4 3 5 6
4 3 3 2 2 1 1 3 5 7 8 8 8 7 3 2 2 1 2 4 6 8 4 3 3 5 4 2 3 6 6 9 3 3 5 6 5 3 2 3 5 6 4 3 5 6 6
6 5 3 3 3 3 1 2 4 7 9 9 9 7 4 2 2 1 3 4 3 4 11 4 2 4 2 5 3 7 10 9 3 6 1 3 5 4 3 3 4 2 1 4 2 2 2
8 7 5 4 4 4 3 2 3 5 7 8 8 6 6 3 1 1 4 3 2 4 5 3 6 5 3 4 2 12 15 3 2 1 2 6 2 1 3 3 3 3 3 3 3 3 1
11 9 8 6 5 4 4 3 2 3 5 7 7 5 3 4 2 2 4 3 4 2 4 3 3 4 3 4 3 5 6 3 4 3 4 4 2 1 2 3 4 3 2 2 3 3 3
15 13 10 8 6 5 5 4 3 2 4 5 5 5 3 2 2 3 2 3 1 2 4 1 2 3 3 2 4 3 4 1 3 5 4 5 2 2 2 2 2 2 2 4 3 3 3
18 16 13 11 8 7 5 5 4 2 2 3 3 4 5 6 2 3 3 0 2 1 4 2 1 2 1 4 2 5 4 4 2 3 4 2 5 2 2 1 2 4 4 3 2 2 5
21 19 17 14 11 9 7 6 5 3 2 2 2 3 3 2 4 3 2 1 2 4 4 1 1 1 2 2 2 1 3 5 1 4 5 2 1 1 2 4 4 5 3 2 3 3 2
25 22 20 17 14 12 10 8 7 6 3 1 2 3 3 2 2 2 2 2 4 3 2 0 1 1 2 2 1 0 1 0 4 3 2 2 1 1 3 5 4 2 4 3 3 2 6
27 26 23 20 18 15 13 11 9 7 4 2 2 2 7 6 2 4 1 4 1 2 2 1 2 1 2 2 2 2 1 3 6 3 3 4 4 6 3 3 5 5 5 4 7 4 4
28 27 27 25 23 20 16 13 10 9 7 3 4 2 3 4 3 1 4 2 5 1 3 4 1 1 2 1 1 1 5 4 5 8 7 4 3 2 4 2 1 5 5 3 1 2 2
23 32 29 29 28 24 19 17 13 11 7 8 3 2 4 2 3 1 3 3 2 2 4 3 2 4 3 4 1 2 4 2 3 3 0 2 3 2 1 2 2 1 2 3 1 3 5
13 11 22 27 25 25 24 20 17 14 11 10 4 2 5 2 4 4 3 5 2 2 1 3 3 2 3 5 6 4 4 0 2 3 5 2 2 1 2 8 8 4 3 2 1 3 4
14 16 13 16 21 25 27 24 20 19 17 10 3 1 2 3 3 0 2 2 1 2 2 1 1 2 2 5 3 3 6 2 2 3 5 4 4 4 9 2 3 1 5 6 4 6 2
11 9 14 13 19 24 25 26 26 24 24 11 3 1 3 3 3 3 3 2 1 3 3 3 2 3 1 4 1 5 1 2 2 2 4 3 2 2 4 4 3 4 4 2 4 3 7
7 6 8 16 16 25 26 30 28 28 27 12 3 2 2 2 0 1 3 3 3 2 3 2 2 4 2 2 2 4 6 3 1 3 4 2 1 6 9 3 4 4 6 13 11 5 4
4 5 8 9 17 18 30 32 32 31 26 10 2 2 2 3 4 4 4 2 2 4 2 4 2 6 6 4 2 6 3 1 2 5 3 4 6 3 5 5 6 7 6 15 19 20 13
1 3 6 9 14 20 26 33 33 29 27 5 4 3 1 2 1 7 5 4 6 3 7 5 6 7 9 8 9 8 6 3 6 3 4 0 3 1 5 7 9 16 11 14 19 20 24
1 1 4 4 11 18 27 29 34 34 27 4 4 3 2 6 3 4 6 6 7 5 5 2 4 3 5 10 3 3 2 3 3 8 6 5 4 2 5 4 6 13 16 21 16 15 21
2 3 5 6 8 16 27 32 40 36 29 8 6 6 3 2 4 5 5 7 8 8 3 1 2 5 3 7 6 4 6 5 3 3 1 5 5 2 3 3 5 5 2 3 14 4 5
2 4 5 8 7 24 28 34 37 30 31 10 11 5 2 3 3 4 6 4 4 2 2 4 3 2 9 2 1 3 3 4 2 4 1 3 4 2 3 4 8 9 1 4 5 4 2
3 3 5 9 9 15 19 25 24 27 31 21 14 8 3 3 7 4 5 5 4 3 2 2 3 3 2 1 2 4 4 4 3 2 2 2 3 5 3 4 6 4 3 2 3 4 2
1 3 1 6 11 14 19 24 23 24 32 25 10 15 5 2 1 2 2 4 6 4 3 3 3 1 3 2 4 5 4 3 4 6 5 3 2 11 9 6 7 2 1 3 3 2 1
0 1 3 3 8 15 16 20 28 29 35 29 11 19 6 2 2 4 5 2 2 3 5 4 3 1 1 4 4 4 3 5 2 5 6 7 8 4 5 4 10 4 3 4 2 1 1
3 4 6 6 7 10 17 16 29 29 39 32 5 19 13 8 3 3 5 4 3 1 4 7 1 4 5 3 3 2 3 2 4 3 0 4 6 5 9 4 2 3 3 2 3 3 1
Wind_Direction
67 95 93 61 52 54 49 39 33 31 32 35 41 54 67 75 78 92 106 105 104 113 4 339 341 349 30 47 9 353 4 14 10 349 253 322 270 319 123 105 84 89 107 57 89 78 68
63 63 99 96 75 56 50 43 36 32 34 33 38 52 72 84 87 99 110 105 90 71 38 19 29 3 34 66 357 346 15 19 14 22 42 23 1 57 76 71 62 108 106 123 76 87 118
49 49 130 105 83 62 48 41 36 31 33 35 37 46 69 93 108 109 128 90 34 4 354 12 6 35 56 167 16 358 30 29 37 61 45 27 16 83 101 88 129 123 99 106 128 115 90
239 280 206 189 133 52 39 33 32 28 28 31 36 44 58 96 125 128 148 342 349 16 13 35 35 63 80 54 1 37 46 52 38 62 37 21 68 83 89 120 99 88 104 121 191 139 165
243 250 244 205 210 13 24 21 23 22 21 22 26 31 60 120 147 155 320 343 349 313 350 26 15 94 54 2 30 17 15 349 336 51 42 29 57 92 74 109 84 189 183 158 214 181 151
238 245 251 240 209 221 341 3 8 15 14 13 13 18 48 105 153 183 35 106 48 33 12 35 14 61 20 359 342 346 3 2 348 331 15 29 53 93 77 95 193 191 208 157 176 209 170
239 242 252 254 233 231 260 338 358 8 10 9 7 16 46 82 115 68 357 306 35 8 48 95 288 103 56 335 24 12 356 342 338 49 109 1 73 178 165 160 151 153 201 125 134 140 158
237 238 238 235 238 234 248 293 350 8 9 10 10 22 46 46 47 59 346 45 101 145 97 73 103 77 64 1 356 354 4 40 358 182 37 31 129 156 95 73 117 101 129 103 82 150 160
237 236 238 236 236 228 232 248 299 354 5 11 15 30 46 29 48 19 20 71 121 116 100 42 39 60 304 20 71 324 11 330 46 59 13 136 164 143 80 49 88 47 162 136 157 322 265
241 236 234 236 237 231 230 236 260 320 360 13 27 41 19 18 47 20 34 338 136 40 79 98 53 14 350 75 46 338 349 117 33 135 111 103 247 145 94 74 61 160 85 101 75 62 224
241 239 236 236 235 238 232 226 241 266 339 4 14 12 34 44 64 38 326 7 338 331 346 46 40 318 346 64 124 357 335 341 104 118 101 155 155 162 151 167 100 183 100 91 61 41 31
236 236 235 234 232 235 238 226 225 244 277 354 19 16 37 83 64 11 117 104 333 39 272 103 71 113 131 128 81 297 16 27 51 73 37 106 297 69 111 77 86 134 86 53 58 72 328
237 236 231 230 234 230 234 232 218 223 237 283 74 48 58 59 86 92 105 25 25 139 94 351 235 163 256 119 70 83 125 37 172 81 212 17 264 47 126 94 14 96 77 343 330 338 233
239 240 237 231 232 229 230 227 215 213 218 205 130 81 67 75 118 150 44 47 299 350 44 19 62 24 153 132 98 126 44 275 216 128 145 183 274 172 188 198 169 180 172 179 237 220 268
241 240 239 236 231 229 226 221 210 203 199 187 145 92 70 43 126 93 66 71 218 135 146 136 177 115 265 25 61 176 213 222 204 179 185 161 251 41 46 7 114 186 206 143 58 247 13
233 245 248 239 235 229 223 215 204 196 186 167 161 105 23 54 124 74 77 247 244 103 130 139 223 192 241 189 196 213 228 228 139 58 2 211 343 196 349 20 90 138 163 114 130 259 270
244 242 240 248 245 235 224 212 195 183 174 168 144 65 354 108 106 50 171 226 151 52 56 197 218 259 212 183 183 213 227 22 75 102 63 78 129 319 88 204 181 161 202 170 76 186 216
237 242 241 236 250 243 225 207 187 178 169 165 101 186 351 143 86 225 199 225 89 171 39 221 259 262 242 152 187 252 241 40 100 135 161 201 152 190 209 5 352 292 195 174 187 210 227
226 239 234 232 232 238 239 206 187 177 174 145 110 62 359 45 166 210 224 194 221 146 222 187 238 233 316 182 234 248 152 309 171 92 157 207 221 343 302 351 345 224 203 144 87 42 198
234 243 231 238 226 228 227 207 189 174 177 147 117 125 357 359 264 201 167 215 216 170 158 183 154 97 96 273 262 231 216 195 19 133 136 133 229 201 236 176 134 203 208 201 193 208 189
227 253 253 252 221 217 215 197 177 178 183 165 103 180 162 191 236 160 64 247 200 205 202 184 210 186 160 237 254 241 200 168 245 205 100 154 223 236 253 218 195 211 191 205 213 224 227
303 264 282 271 221 205 206 194 178 181 170 124 135 153 20 101 107 127 190 235 212 188 149 238 214 191 179 210 197 206 147 190 209 130 145 323 251 40 274 227 218 255 222 226 225 229 241
324 333 348 179 187 196 202 201 178 179 171 131 140 111 161 142 140 138 196 202 203 162 228 53 205 155 205 236 111 116 110 75 192 159 172 155 178 144 270 339 315 281 230 211 225 224 226
65 68 53 131 161 194 197 197 187 191 185 144 155 136 133 183 180 204 183 204 216 199 186 201 11 173 150 125 109 62 49 46 26 49 22 159 153 171 286 344 253 275 330 174 223 270 284
80 100 101 99 167 197 199 195 188 187 193 183 157 145 155 145 172 195 184 178 109 45 111 143 68 8 160 116 80 328 330 6 13 31 25 12 167 203 238 227 309 310 245 143 164 271 320
68 99 130 152 156 201 206 204 204 199 200 197 181 161 130 126 219 119 154 167 177 159 117 84 21 106 42 196 158 221 234 221 247 339 33 63 7 204 141 232 249 245 292 214 119 282 308
96 55 131 176 177 192 213 222 212 215 199 195 190 192 122 170 92 27 181 183 156 116 110 132 161 177 13 181 205 214 244 150 221 179 166 135 222 221 221 243 274 276 305 320 108 242 286
283 315 279 240 205 197 205 220 218 214 193 193 190 191 166 112 52 15 0 145 88 138 154 150 113 275 140 206 205 217 210 217 174 158 177 167 171 194 195 225 262 14 21 182 175 242 153
266 294 294 275 263 225 202 204 218 220 197 194 148 183 171 85 102 87 83 59 25 10 126 180 285 160 170 177 216 223 213 161 182 244 336 209 201 185 202 217 56 15 87 177 181 165 262